{"data":{"norad_id":48435,"intl_designator":"2021-040H","name":"STARLINK-2633","alt_names":[],"object_type":"PAYLOAD","status":"ACTIVE","operator":null,"country":"US","launch_date":"2021-05-09","launch_site_code":"AFETR","launch_vehicle":null,"mission":null,"orbit_class":"UNKNOWN","rcs_meters":null,"size_class":null,"mass_kg":null,"dimensions":null,"purposes":["comms"],"wikipedia_slug":null,"has_3d_model":false,"image_url":null,"decayed_at":null,"tle_current":{"epoch":"2026-09-20T04:12:44.167680Z","epoch_age_seconds":65220,"freshness":"FRESH","line1":"1 48435U 21040H   26263.17551120  .00000030  00000+0  12736-4 0  9997","line2":"2 48435  53.1593 340.1649 0001218  90.6917 269.4224 15.31701792296656","mean_motion":15.31701792,"eccentricity":0.0001218,"inclination_deg":53.1593,"raan_deg":340.1649,"arg_perigee_deg":90.6917,"mean_anomaly_deg":269.4224,"bstar":1.2736e-5,"rev_number":29665,"period_min":94.01307797125,"perigee_km":469.90046080472,"apogee_km":471.56884593949,"semimajor_km":6848.8716533721,"source":"CELESTRAK","updated_at":"2026-09-20T09:00:39.124002Z"}}}